Location: Baia Mare
(47.6567°N, 23.5850°E)
Time: 13:57:09
(UTC+02:00)

ISS - Pass Details

Date: 05 December 2018
Orbit: 401 x 408 km, 51.6° (Epoch: 16 December)

Event Time Altitude Azimuth Distance (km) Brightness Sun altitude
Rises 19:37:07 0° 293° (WNW) 2,319 1.0 -29.8°
Reaches altitude 10° 19:39:12 10° 294° (WNW) 1,457 -0.3 -30.1°
Enters shadow 19:39:24 11° 294° (WNW) 1,377 -0.4 -30.2°
